CLX24 UBBB-WSSS

Flight info

Callsign CLX24
Flight time 7h 27m
Altitude 31000
Route NAMAS N35 RODAR A909 TUNEK B143 KRS A240 INRAK B449 RANAH L750 MERUN L333 KKJ L759 IBUDA/N0514F330 L759 PUT B579 VPL W531 VIH A464 ARAMA ARAMA1A
Aircraft B748/H-SDE3FGHIM1M2RWXY/LB1

Departure

Time 2026-05-04 15:20
Airport Heydar Aliyev International Airport (UBBB)

Arrival

Time 2026-05-04 22:48
Airport Singapore Changi Airport (WSSS)
Time Latitude Longitude Altitude Speed Heading
2026-05-04 15:08 40.46201 50.05852 22 ft 0 kts 269°
2026-05-04 15:12 40.46201 50.05867 22 ft 2 kts 268°
2026-05-04 15:13 40.46204 50.05885 22 ft 2 kts 252°
2026-05-04 15:13 40.46210 50.05903 22 ft 2 kts 241°
2026-05-04 15:13 40.46218 50.05919 22 ft 2 kts 232°
2026-05-04 15:13 40.46229 50.05934 22 ft 2 kts 221°
2026-05-04 15:14 40.46241 50.05945 22 ft 2 kts 210°
2026-05-04 15:14 40.46256 50.05954 22 ft 1 kts 197°
2026-05-04 15:14 40.46270 50.05958 22 ft 2 kts 188°
2026-05-04 15:14 40.46283 50.05959 22 ft 0 kts 179°
2026-05-04 15:15 40.46284 50.05959 22 ft 0 kts 179°
2026-05-04 15:16 40.46283 50.05959 22 ft 0 kts 179°
2026-05-04 15:17 40.46267 50.05960 22 ft 4 kts 179°
2026-05-04 15:17 40.46113 50.05961 22 ft 15 kts 180°
2026-05-04 15:17 40.46000 50.05962 22 ft 16 kts 179°
2026-05-04 15:18 40.45880 50.05972 22 ft 16 kts 153°
2026-05-04 15:18 40.45834 50.06081 22 ft 13 kts 134°
2026-05-04 15:18 40.45745 50.06103 22 ft 14 kts 178°
2026-05-04 15:19 40.45681 50.06290 22 ft 14 kts 43°
2026-05-04 15:19 40.45880 50.06321 22 ft 58 kts 359°
2026-05-04 15:19 40.47423 50.06305 23 ft 156 kts 358°
2026-05-04 15:20 40.48635 50.06290 74 ft 183 kts 356°
2026-05-04 15:20 40.49912 50.06162 324 ft 186 kts 349°
2026-05-04 15:20 40.51212 50.05909 598 ft 189 kts 348°
2026-05-04 15:20 40.52525 50.05621 939 ft 192 kts 347°
2026-05-04 15:21 40.53863 50.05314 1204 ft 202 kts 353°
2026-05-04 15:21 40.55272 50.05455 1635 ft 203 kts 12°
2026-05-04 15:21 40.57662 50.07501 1982 ft 213 kts 52°
2026-05-04 15:22 40.58349 50.09223 2150 ft 216 kts 72°
2026-05-04 15:22 40.58573 50.11181 2328 ft 216 kts 90°
2026-05-04 15:22 40.58521 50.15154 2722 ft 218 kts 89°
2026-05-04 15:23 40.58556 50.17165 2915 ft 219 kts 90°
2026-05-04 15:23 40.58586 50.19179 3089 ft 220 kts 91°
2026-05-04 15:23 40.58617 50.21206 3218 ft 227 kts 92°
2026-05-04 15:23 40.58648 50.23334 3343 ft 236 kts 91°
2026-05-04 15:24 40.58717 50.27786 3789 ft 249 kts 92°
2026-05-04 15:24 40.58348 50.32488 4140 ft 266 kts 114°
2026-05-04 15:25 40.57529 50.34715 4459 ft 269 kts 123°
2026-05-04 15:25 40.56580 50.36856 4888 ft 274 kts 124°
2026-05-04 15:25 40.55626 50.39019 5437 ft 276 kts 122°
2026-05-04 15:26 40.53770 50.43542 6415 ft 282 kts 122°
2026-05-04 15:26 40.52852 50.45872 6848 ft 288 kts 119°
2026-05-04 15:26 40.51108 50.50619 7754 ft 295 kts 120°
2026-05-04 15:27 40.50211 50.53058 8210 ft 298 kts 119°
2026-05-04 15:27 40.48388 50.58005 9063 ft 304 kts 119°
2026-05-04 15:28 40.46533 50.63039 9844 ft 311 kts 119°
2026-05-04 15:28 40.45586 50.65607 10213 ft 314 kts 120°
2026-05-04 15:28 40.43608 50.70954 10643 ft 334 kts 120°
2026-05-04 15:29 40.42580 50.73736 10837 ft 345 kts 120°
2026-05-04 15:30 40.38113 50.85809 11672 ft 388 kts 119°
2026-05-04 15:30 40.36729 50.96479 12293 ft 426 kts 77°
2026-05-04 15:31 40.38404 51.04142 12768 ft 445 kts 73°
2026-05-04 15:31 40.39224 51.08047 13061 ft 451 kts 77°
2026-05-04 15:32 40.41396 51.20150 14336 ft 459 kts 78°
2026-05-04 15:32 40.42855 51.28379 15095 ft 466 kts 78°
2026-05-04 15:33 40.44325 51.36666 15804 ft 473 kts 78°
2026-05-04 15:34 40.46411 51.49374 16843 ft 480 kts 88°
2026-05-04 15:34 40.46343 51.53745 17199 ft 476 kts 101°
2026-05-04 15:34 40.44812 51.62177 17803 ft 479 kts 108°
2026-05-04 15:35 40.43020 51.70631 18476 ft 483 kts 111°
2026-05-04 15:35 40.42059 51.74853 18817 ft 486 kts 109°
2026-05-04 15:35 40.41233 51.79131 19170 ft 488 kts 107°
2026-05-04 15:36 40.39643 51.87809 19799 ft 493 kts 107°
2026-05-04 15:36 40.38835 51.92219 20102 ft 495 kts 107°
2026-05-04 15:36 40.38032 51.96603 20437 ft 497 kts 107°
2026-05-04 15:37 40.37221 52.00993 20701 ft 500 kts 107°
2026-05-04 15:37 40.36404 52.05398 21032 ft 501 kts 107°
2026-05-04 15:37 40.35583 52.09810 21326 ft 503 kts 107°
2026-05-04 15:37 40.34751 52.14262 21598 ft 505 kts 107°
2026-05-04 15:38 40.33908 52.18766 21923 ft 506 kts 107°
2026-05-04 15:38 40.33077 52.23181 22148 ft 509 kts 107°
2026-05-04 15:38 40.32232 52.27668 22438 ft 510 kts 107°
2026-05-04 15:38 40.31376 52.32199 22644 ft 513 kts 107°
2026-05-04 15:39 40.30522 52.36709 22971 ft 513 kts 107°
2026-05-04 15:39 40.29653 52.41287 23236 ft 515 kts 107°
2026-05-04 15:39 40.27923 52.50370 23716 ft 519 kts 107°
2026-05-04 15:40 40.27043 52.54959 23903 ft 521 kts 109°
2026-05-04 15:40 40.25794 52.59379 24119 ft 516 kts 120°
2026-05-04 15:40 40.23994 52.63342 24321 ft 511 kts 128°
2026-05-04 15:40 40.21949 52.67247 24559 ft 512 kts 129°
2026-05-04 15:41 40.19893 52.71108 24751 ft 515 kts 130°
2026-05-04 15:41 40.17835 52.74973 24969 ft 516 kts 129°
2026-05-04 15:41 40.15790 52.78827 25167 ft 519 kts 129°
2026-05-04 15:41 40.13759 52.82664 25322 ft 521 kts 129°
2026-05-04 15:42 40.11706 52.86549 25551 ft 523 kts 129°
2026-05-04 15:42 40.09627 52.90485 25708 ft 525 kts 129°
2026-05-04 15:42 40.07556 52.94406 25888 ft 528 kts 129°
2026-05-04 15:42 40.05472 52.98354 26039 ft 530 kts 129°
2026-05-04 15:43 40.03616 53.02549 26248 ft 538 kts 118°
2026-05-04 15:43 40.02209 53.07082 26359 ft 543 kts 115°
2026-05-04 15:43 40.00880 53.11644 26509 ft 546 kts 114°
2026-05-04 15:43 39.99576 53.16319 26649 ft 549 kts 113°
2026-05-04 15:44 39.98302 53.21055 26939 ft 549 kts 112°
2026-05-04 15:44 39.97028 53.25743 27113 ft 550 kts 114°
2026-05-04 15:44 39.95713 53.30383 27414 ft 550 kts 114°
2026-05-04 15:44 39.94380 53.35056 27607 ft 551 kts 114°
2026-05-04 15:45 39.93045 53.39704 27934 ft 550 kts 114°
2026-05-04 15:45 39.91702 53.44374 28154 ft 550 kts 114°
2026-05-04 15:45 39.90373 53.48989 28386 ft 551 kts 113°
2026-05-04 15:45 39.89032 53.53646 28669 ft 550 kts 113°
2026-05-04 15:46 39.87672 53.58354 28924 ft 550 kts 113°
2026-05-04 15:46 39.86333 53.62993 29143 ft 551 kts 113°
2026-05-04 15:46 39.84988 53.67636 29438 ft 550 kts 114°
2026-05-04 15:46 39.83644 53.72272 29689 ft 549 kts 114°
2026-05-04 15:47 39.82298 53.76911 29858 ft 550 kts 114°
2026-05-04 15:47 39.80954 53.81534 30170 ft 547 kts 114°
2026-05-04 15:47 39.79604 53.86166 30355 ft 548 kts 114°
2026-05-04 15:47 39.78254 53.90790 30579 ft 547 kts 114°
2026-05-04 15:48 39.76920 53.95354 30772 ft 547 kts 114°
2026-05-04 15:48 39.72845 54.09243 30813 ft 546 kts 114°
2026-05-04 15:49 39.70151 54.18390 30816 ft 545 kts 114°
2026-05-04 15:49 39.67437 54.27570 30818 ft 546 kts 114°
2026-05-04 15:50 39.64710 54.36762 30835 ft 546 kts 114°
2026-05-04 15:50 39.61975 54.45952 30847 ft 547 kts 114°
2026-05-04 15:51 39.59238 54.55112 30850 ft 548 kts 114°
2026-05-04 15:51 39.56473 54.64335 30832 ft 548 kts 114°
2026-05-04 15:52 39.53722 54.73490 30813 ft 547 kts 114°
2026-05-04 15:52 39.50947 54.82688 30805 ft 548 kts 114°
2026-05-04 15:53 39.48180 54.91821 30797 ft 550 kts 114°
2026-05-04 15:53 39.45385 55.01025 30799 ft 550 kts 114°
2026-05-04 15:54 39.42586 55.10212 30799 ft 549 kts 114°
2026-05-04 15:54 39.39784 55.19379 30804 ft 549 kts 114°
2026-05-04 15:55 39.36959 55.28583 30800 ft 550 kts 114°
2026-05-04 15:55 39.34156 55.37695 30798 ft 549 kts 114°
2026-05-04 15:56 39.31327 55.46865 30805 ft 550 kts 114°
2026-05-04 15:56 39.28493 55.55992 30805 ft 549 kts 115°
2026-05-04 15:57 39.25241 55.64854 30812 ft 549 kts 118°
2026-05-04 15:57 39.21831 55.73640 30816 ft 549 kts 119°
2026-05-04 15:58 39.18409 55.82462 30829 ft 550 kts 119°
2026-05-04 15:58 39.15020 55.91217 30843 ft 549 kts 119°
2026-05-04 15:59 39.11595 56.00057 30856 ft 549 kts 118°
2026-05-04 15:59 39.08182 56.08854 30860 ft 550 kts 118°
2026-05-04 16:00 39.04787 56.17588 30849 ft 550 kts 118°
2026-05-04 16:00 39.01351 56.26415 30829 ft 550 kts 118°
2026-05-04 16:01 38.98384 56.35439 30840 ft 553 kts 111°
2026-05-04 16:01 38.95827 56.44700 30836 ft 552 kts 110°
2026-05-04 16:02 38.93343 56.54074 30848 ft 552 kts 110°
2026-05-04 16:03 38.89500 56.68021 30827 ft 555 kts 111°
2026-05-04 16:03 38.86921 56.77310 30834 ft 554 kts 111°
2026-05-04 16:04 38.84338 56.86582 30824 ft 554 kts 111°
2026-05-04 16:04 38.80440 57.00521 30831 ft 554 kts 111°
2026-05-04 16:05 38.77836 57.09786 30816 ft 554 kts 110°
2026-05-04 16:06 38.73913 57.23695 30826 ft 555 kts 110°
2026-05-04 16:07 38.68658 57.42210 30858 ft 554 kts 110°
2026-05-04 16:08 38.63379 57.60701 30856 ft 555 kts 110°
2026-05-04 16:09 38.55873 57.83383 30859 ft 556 kts 115°
2026-05-04 16:10 38.49509 58.01341 30865 ft 555 kts 115°
2026-05-04 16:11 38.43163 58.19286 30867 ft 557 kts 115°
2026-05-04 16:12 38.32104 58.45094 30873 ft 555 kts 122°
2026-05-04 16:13 38.24146 58.61835 30883 ft 554 kts 122°
2026-05-04 16:14 38.16191 58.78550 30869 ft 555 kts 122°
2026-05-04 16:16 38.06179 58.99498 30851 ft 556 kts 122°
2026-05-04 16:17 37.96145 59.20374 30867 ft 555 kts 122°
2026-05-04 16:18 37.87981 59.36943 30881 ft 554 kts 127°
2026-05-04 16:19 37.76301 59.56294 30912 ft 555 kts 128°
2026-05-04 16:20 37.64588 59.75566 30888 ft 554 kts 129°
2026-05-04 16:22 37.52864 59.94806 30914 ft 554 kts 128°
2026-05-04 16:23 37.38871 60.17646 30922 ft 550 kts 128°
2026-05-04 16:25 37.24796 60.40472 30929 ft 550 kts 128°
2026-05-04 16:26 37.08351 60.66954 30930 ft 551 kts 129°
2026-05-04 16:28 36.96579 60.85865 30917 ft 552 kts 127°
2026-05-04 16:29 36.81166 61.13345 30921 ft 552 kts 126°
2026-05-04 16:31 36.70083 61.32894 30931 ft 551 kts 125°
2026-05-04 16:32 36.56699 61.56185 30943 ft 551 kts 126°
2026-05-04 16:33 36.47628 61.71549 30952 ft 549 kts 127°
2026-05-04 16:34 36.40873 61.82962 30960 ft 550 kts 127°
2026-05-04 16:35 36.27268 62.05866 30972 ft 549 kts 127°
2026-05-04 16:36 36.20460 62.17279 30983 ft 549 kts 127°
2026-05-04 16:37 36.13652 62.28656 30980 ft 550 kts 127°
2026-05-04 16:38 36.04512 62.43881 30972 ft 551 kts 126°
2026-05-04 16:39 35.93100 62.62801 30981 ft 551 kts 126°
2026-05-04 16:40 35.83916 62.77954 30979 ft 551 kts 127°
2026-05-04 16:41 35.72435 62.96822 30970 ft 551 kts 127°
2026-05-04 16:43 35.60915 63.15677 31009 ft 552 kts 127°
2026-05-04 16:43 35.53989 63.26893 31032 ft 551 kts 127°
2026-05-04 16:45 35.39956 63.49173 31061 ft 551 kts 127°
2026-05-04 16:46 35.28245 63.67779 31094 ft 552 kts 128°
2026-05-04 16:47 35.18854 63.82624 31130 ft 552 kts 128°
2026-05-04 16:48 35.09441 63.97454 31164 ft 552 kts 127°
2026-05-04 16:49 35.00037 64.12225 31200 ft 552 kts 127°
2026-05-04 16:50 34.90635 64.26942 31269 ft 551 kts 127°
2026-05-04 16:51 34.83562 64.37980 31321 ft 551 kts 127°
2026-05-04 16:52 34.74112 64.52680 31349 ft 552 kts 127°
2026-05-04 16:53 34.67016 64.63683 31357 ft 552 kts 127°
2026-05-04 16:54 34.57559 64.78303 31385 ft 551 kts 128°
2026-05-04 16:55 34.43339 65.00170 31408 ft 550 kts 128°
2026-05-04 16:56 34.31395 65.18307 31426 ft 550 kts 128°
2026-05-04 16:57 34.24249 65.29141 31440 ft 552 kts 128°
2026-05-04 16:58 34.14706 65.43578 31436 ft 550 kts 128°
2026-05-04 17:00 34.00349 65.65237 31431 ft 551 kts 129°
2026-05-04 17:01 33.88334 65.83205 31410 ft 552 kts 128°
2026-05-04 17:02 33.78712 65.97557 31418 ft 552 kts 128°
2026-05-04 17:03 33.71463 66.08341 31425 ft 551 kts 128°
2026-05-04 17:03 33.64254 66.19042 31396 ft 551 kts 128°
2026-05-04 17:04 33.54630 66.33292 31385 ft 550 kts 128°
2026-05-04 17:05 33.44987 66.47564 31399 ft 551 kts 128°
2026-05-04 17:06 33.37700 66.58182 31422 ft 551 kts 128°
2026-05-04 17:07 33.31228 66.67577 31423 ft 551 kts 129°
2026-05-04 17:07 33.25560 66.75796 31415 ft 551 kts 129°
2026-05-04 17:08 33.18219 66.86423 31448 ft 551 kts 129°
2026-05-04 17:09 33.13353 66.93456 31447 ft 551 kts 129°
2026-05-04 17:09 33.08473 67.00497 31443 ft 551 kts 129°
2026-05-04 17:10 32.96245 67.18095 31450 ft 551 kts 129°
2026-05-04 17:11 32.91357 67.25113 31396 ft 552 kts 129°
2026-05-04 17:12 32.84049 67.35590 31374 ft 550 kts 129°
2026-05-04 17:13 32.71699 67.52881 31328 ft 549 kts 131°
2026-05-04 17:14 32.61519 67.66435 31298 ft 550 kts 131°
2026-05-04 17:15 32.53914 67.76604 31273 ft 550 kts 131°
2026-05-04 17:16 32.43990 67.90377 31267 ft 550 kts 128°
2026-05-04 17:17 32.34283 68.04355 31281 ft 550 kts 129°
2026-05-04 17:18 32.24527 68.18301 31301 ft 550 kts 129°
2026-05-04 17:19 32.14741 68.32236 31296 ft 550 kts 129°
2026-05-04 17:20 32.04971 68.46094 31287 ft 550 kts 129°
2026-05-04 17:20 31.97634 68.56467 31271 ft 550 kts 129°
2026-05-04 17:21 31.87828 68.70289 31223 ft 548 kts 129°
2026-05-04 17:22 31.82951 68.77148 31223 ft 548 kts 129°
2026-05-04 17:23 31.73126 68.90931 31204 ft 548 kts 129°
2026-05-04 17:24 31.65790 69.01231 31194 ft 548 kts 128°
2026-05-04 17:25 31.56392 69.15167 31195 ft 545 kts 127°
2026-05-04 17:26 31.46983 69.29134 31165 ft 546 kts 127°
2026-05-04 17:27 31.34979 69.46198 31167 ft 542 kts 136°
2026-05-04 17:28 31.23440 69.57545 31202 ft 542 kts 141°
2026-05-04 17:29 31.05825 69.74129 31180 ft 542 kts 142°
2026-05-04 17:31 30.91213 69.87867 31174 ft 539 kts 142°
2026-05-04 17:32 30.76616 70.01547 31190 ft 539 kts 142°
2026-05-04 17:33 30.64870 70.12517 31082 ft 541 kts 142°
2026-05-04 17:34 30.53142 70.23440 30985 ft 541 kts 142°
2026-05-04 17:35 30.38451 70.37074 30940 ft 541 kts 142°
2026-05-04 17:36 30.32541 70.42548 30909 ft 542 kts 142°
2026-05-04 17:36 30.26647 70.48001 30891 ft 543 kts 142°
2026-05-04 17:37 30.20709 70.53513 30863 ft 544 kts 142°
2026-05-04 17:37 30.14888 70.58996 30852 ft 541 kts 142°
2026-05-04 17:38 30.09010 70.64542 30853 ft 543 kts 141°
2026-05-04 17:38 30.03168 70.70049 30824 ft 545 kts 142°
2026-05-04 17:39 29.94367 70.78336 30807 ft 545 kts 142°
2026-05-04 17:39 29.88460 70.83894 30806 ft 546 kts 142°
2026-05-04 17:40 29.82591 70.89410 30802 ft 545 kts 142°
2026-05-04 17:40 29.76717 70.94926 30780 ft 546 kts 142°
2026-05-04 17:41 29.70803 71.00482 30785 ft 547 kts 142°
2026-05-04 17:41 29.64945 71.06132 30787 ft 548 kts 139°
2026-05-04 17:42 29.59273 71.11944 30774 ft 548 kts 139°
2026-05-04 17:42 29.53587 71.17798 30768 ft 546 kts 139°
2026-05-04 17:43 29.47890 71.23610 30767 ft 547 kts 139°
2026-05-04 17:43 29.42156 71.29446 30755 ft 547 kts 139°
2026-05-04 17:44 29.36487 71.35212 30763 ft 547 kts 139°
2026-05-04 17:44 29.30768 71.41029 30749 ft 546 kts 139°
2026-05-04 17:45 29.25106 71.46802 30755 ft 547 kts 139°
2026-05-04 17:45 29.19388 71.52624 30741 ft 546 kts 139°
2026-05-04 17:46 29.13699 71.58414 30738 ft 547 kts 139°
2026-05-04 17:46 29.08007 71.64201 30757 ft 547 kts 139°
2026-05-04 17:47 29.02333 71.69965 30735 ft 546 kts 140°
2026-05-04 17:47 28.96656 71.75726 30720 ft 546 kts 140°
2026-05-04 17:48 28.90957 71.81503 30728 ft 547 kts 140°
2026-05-04 17:48 28.85241 71.87291 30732 ft 547 kts 139°
2026-05-04 17:49 28.79513 71.93085 30732 ft 547 kts 139°
2026-05-04 17:49 28.73805 71.98850 30735 ft 548 kts 140°
2026-05-04 17:50 28.68081 72.04627 30731 ft 546 kts 140°
2026-05-04 17:50 28.62367 72.10388 30735 ft 546 kts 140°
2026-05-04 17:51 28.56670 72.16129 30740 ft 547 kts 140°
2026-05-04 17:51 28.51138 72.22109 30756 ft 547 kts 133°
2026-05-04 17:52 28.46558 72.29037 30750 ft 548 kts 121°
2026-05-04 17:52 28.42666 72.36480 30745 ft 549 kts 120°
2026-05-04 17:53 28.38998 72.44114 30747 ft 548 kts 117°
2026-05-04 17:53 28.35504 72.51799 30750 ft 548 kts 116°
2026-05-04 17:54 28.32003 72.59443 30753 ft 547 kts 117°
2026-05-04 17:54 28.28416 72.67139 30758 ft 546 kts 118°
2026-05-04 17:55 28.24873 72.74722 30755 ft 546 kts 118°
2026-05-04 17:55 28.21313 72.82338 30756 ft 547 kts 118°
2026-05-04 17:56 28.17735 72.89980 30751 ft 547 kts 118°
2026-05-04 17:56 28.14151 72.97620 30756 ft 546 kts 118°
2026-05-04 17:57 28.10590 73.05199 30759 ft 546 kts 118°
2026-05-04 17:57 28.06994 73.12843 30767 ft 547 kts 118°
2026-05-04 17:58 28.03411 73.20441 30765 ft 546 kts 118°
2026-05-04 17:58 27.99821 73.28042 30770 ft 545 kts 118°
2026-05-04 17:59 27.96271 73.35545 30781 ft 542 kts 118°
2026-05-04 18:00 27.90938 73.46796 30804 ft 540 kts 118°
2026-05-04 18:00 27.87380 73.54285 30801 ft 540 kts 118°
2026-05-04 18:01 27.83802 73.61805 30818 ft 540 kts 118°
2026-05-04 18:01 27.80249 73.69258 30792 ft 540 kts 119°
2026-05-04 18:02 27.74907 73.80458 30806 ft 537 kts 119°
2026-05-04 18:02 27.71431 73.87916 30817 ft 536 kts 117°
2026-05-04 18:03 27.68095 73.95425 30803 ft 536 kts 117°
2026-05-04 18:03 27.64755 74.02961 30817 ft 537 kts 117°
2026-05-04 18:04 27.61396 74.10523 30810 ft 537 kts 117°
2026-05-04 18:05 27.56368 74.21798 30828 ft 537 kts 117°
2026-05-04 18:05 27.53006 74.29316 30819 ft 537 kts 117°
2026-05-04 18:06 27.47953 74.40593 30843 ft 537 kts 117°
2026-05-04 18:06 27.44574 74.48113 30844 ft 536 kts 117°
2026-05-04 18:07 27.41212 74.55583 30842 ft 535 kts 117°
2026-05-04 18:07 27.37833 74.63077 30837 ft 536 kts 117°
2026-05-04 18:08 27.34468 74.70526 30839 ft 536 kts 118°
2026-05-04 18:08 27.31076 74.78024 30842 ft 537 kts 118°
2026-05-04 18:09 27.24286 74.92989 30873 ft 537 kts 118°
2026-05-04 18:10 27.20914 75.00404 30857 ft 536 kts 118°
2026-05-04 18:10 27.17521 75.07850 30849 ft 538 kts 118°
2026-05-04 18:11 27.14103 75.15346 30877 ft 538 kts 118°
2026-05-04 18:11 27.10699 75.22799 30856 ft 535 kts 119°
2026-05-04 18:12 27.07297 75.30238 30879 ft 537 kts 118°
2026-05-04 18:12 27.03886 75.37692 30870 ft 537 kts 119°
2026-05-04 18:13 27.00456 75.45117 30859 ft 538 kts 119°
2026-05-04 18:14 26.95283 75.56301 30890 ft 536 kts 119°
2026-05-04 18:14 26.91852 75.63714 30880 ft 537 kts 119°
2026-05-04 18:15 26.84989 75.78548 30875 ft 537 kts 120°
2026-05-04 18:16 26.81530 75.85963 30884 ft 534 kts 121°
2026-05-04 18:16 26.77855 75.93192 30878 ft 533 kts 122°
2026-05-04 18:17 26.72308 76.03974 30879 ft 533 kts 122°
2026-05-04 18:18 26.66752 76.14816 30871 ft 534 kts 123°
2026-05-04 18:18 26.63059 76.22023 30866 ft 534 kts 122°
2026-05-04 18:19 26.57501 76.32865 30866 ft 535 kts 122°
2026-05-04 18:19 26.53812 76.40050 30869 ft 535 kts 122°
2026-05-04 18:20 26.50121 76.47238 30863 ft 534 kts 122°
2026-05-04 18:20 26.46423 76.54446 30861 ft 533 kts 122°
2026-05-04 18:21 26.42866 76.61748 30867 ft 534 kts 121°
2026-05-04 18:21 26.39363 76.69109 30850 ft 535 kts 121°
2026-05-04 18:22 26.35881 76.76408 30839 ft 536 kts 121°
2026-05-04 18:22 26.32369 76.83749 30840 ft 535 kts 121°
2026-05-04 18:23 26.28839 76.91111 30847 ft 536 kts 121°
2026-05-04 18:23 26.25314 76.98443 30845 ft 537 kts 121°
2026-05-04 18:24 26.21794 77.05762 30838 ft 538 kts 121°
2026-05-04 18:24 26.18246 77.13125 30832 ft 537 kts 121°
2026-05-04 18:25 26.14712 77.20461 30835 ft 539 kts 121°
2026-05-04 18:25 26.11152 77.27797 30844 ft 539 kts 121°
2026-05-04 18:26 26.07564 77.35120 30842 ft 538 kts 121°
2026-05-04 18:26 26.03986 77.42419 30859 ft 538 kts 121°
2026-05-04 18:27 26.00391 77.49742 30847 ft 539 kts 121°
2026-05-04 18:27 25.96806 77.57041 30862 ft 540 kts 121°
2026-05-04 18:28 25.93205 77.64368 30867 ft 539 kts 121°
2026-05-04 18:28 25.89592 77.71712 30863 ft 539 kts 122°
2026-05-04 18:29 25.85984 77.79041 30865 ft 537 kts 122°
2026-05-04 18:29 25.82393 77.86322 30863 ft 538 kts 122°
2026-05-04 18:30 25.77017 77.97205 30858 ft 538 kts 122°
2026-05-04 18:31 25.73395 78.04526 30855 ft 538 kts 122°
2026-05-04 18:31 25.69804 78.11778 30857 ft 539 kts 122°
2026-05-04 18:32 25.66190 78.19071 30857 ft 538 kts 122°
2026-05-04 18:32 25.62597 78.26325 30865 ft 538 kts 122°
2026-05-04 18:33 25.59006 78.33615 30862 ft 537 kts 122°
2026-05-04 18:33 25.55429 78.40869 30856 ft 535 kts 122°
2026-05-04 18:34 25.51862 78.48093 30855 ft 535 kts 122°
2026-05-04 18:34 25.48270 78.55360 30858 ft 536 kts 122°
2026-05-04 18:35 25.44711 78.62557 30850 ft 535 kts 122°
2026-05-04 18:35 25.41111 78.69830 30834 ft 535 kts 122°
2026-05-04 18:36 25.37555 78.77003 30834 ft 536 kts 122°
2026-05-04 18:36 25.33971 78.84225 30830 ft 536 kts 122°
2026-05-04 18:37 25.30370 78.91475 30828 ft 534 kts 123°
2026-05-04 18:37 25.26811 78.98625 30824 ft 533 kts 122°
2026-05-04 18:38 25.23206 79.05862 30822 ft 534 kts 122°
2026-05-04 18:38 25.19619 79.13051 30820 ft 533 kts 122°
2026-05-04 18:39 25.16052 79.20193 30825 ft 532 kts 123°
2026-05-04 18:39 25.12484 79.27322 30834 ft 533 kts 123°
2026-05-04 18:40 25.08899 79.34477 30835 ft 533 kts 123°
2026-05-04 18:40 25.05284 79.41685 30834 ft 530 kts 123°
2026-05-04 18:41 25.01718 79.48781 30839 ft 532 kts 122°
2026-05-04 18:41 24.98114 79.55947 30836 ft 531 kts 123°
2026-05-04 18:42 24.94530 79.63065 30829 ft 529 kts 122°
2026-05-04 18:42 24.90955 79.70155 30838 ft 531 kts 123°
2026-05-04 18:43 24.87356 79.77286 30821 ft 530 kts 123°
2026-05-04 18:43 24.83781 79.84370 30827 ft 530 kts 123°
2026-05-04 18:44 24.80036 79.91335 30825 ft 527 kts 129°
2026-05-04 18:44 24.75514 79.97666 30833 ft 523 kts 134°
2026-05-04 18:45 24.70859 80.03805 30830 ft 522 kts 134°
2026-05-04 18:45 24.66186 80.09958 30838 ft 524 kts 134°
2026-05-04 18:46 24.61508 80.16122 30841 ft 524 kts 134°
2026-05-04 18:46 24.56836 80.22278 30846 ft 524 kts 134°
2026-05-04 18:47 24.52165 80.28427 30845 ft 524 kts 134°
2026-05-04 18:47 24.47473 80.34601 30856 ft 525 kts 134°
2026-05-04 18:48 24.42796 80.40747 30856 ft 524 kts 135°
2026-05-04 18:48 24.38097 80.46915 30859 ft 526 kts 135°
2026-05-04 18:49 24.33417 80.53053 30866 ft 526 kts 135°
2026-05-04 18:49 24.28709 80.59221 30861 ft 525 kts 135°
2026-05-04 18:50 24.24029 80.65346 30867 ft 524 kts 135°
2026-05-04 18:50 24.19341 80.71471 30856 ft 524 kts 135°
2026-05-04 18:51 24.14643 80.77599 30855 ft 525 kts 135°
2026-05-04 18:51 24.09951 80.83716 30842 ft 524 kts 135°
2026-05-04 18:52 24.05253 80.89831 30854 ft 523 kts 136°
2026-05-04 18:52 24.00568 80.95925 30849 ft 522 kts 136°
2026-05-04 18:53 23.95885 81.02007 30853 ft 522 kts 136°
2026-05-04 18:53 23.91188 81.08096 30865 ft 523 kts 136°
2026-05-04 18:54 23.86492 81.14178 30874 ft 525 kts 136°
2026-05-04 18:54 23.81774 81.20281 30878 ft 524 kts 136°
2026-05-04 18:55 23.77043 81.26397 30872 ft 524 kts 136°
2026-05-04 18:55 23.69955 81.35541 30879 ft 526 kts 136°
2026-05-04 18:56 23.65232 81.41627 30880 ft 525 kts 136°
2026-05-04 18:56 23.60500 81.47714 30885 ft 525 kts 136°
2026-05-04 18:57 23.55738 81.53835 30891 ft 526 kts 136°
2026-05-04 18:57 23.50998 81.59920 30893 ft 527 kts 136°
2026-05-04 18:58 23.46238 81.66024 30884 ft 526 kts 136°
2026-05-04 18:58 23.41484 81.72113 30876 ft 527 kts 136°
2026-05-04 18:59 23.36732 81.78191 30877 ft 527 kts 136°
2026-05-04 18:59 23.31989 81.84251 30890 ft 528 kts 136°
2026-05-04 19:00 23.27219 81.90338 30892 ft 527 kts 136°
2026-05-04 19:00 23.22454 81.96419 30889 ft 527 kts 136°
2026-05-04 19:01 23.17663 82.02518 30893 ft 529 kts 136°
2026-05-04 19:01 23.12886 82.08600 30885 ft 530 kts 136°
2026-05-04 19:02 23.08087 82.14714 30890 ft 529 kts 136°
2026-05-04 19:02 23.03372 82.20831 30875 ft 528 kts 135°
2026-05-04 19:03 22.98691 82.27007 30872 ft 529 kts 135°
2026-05-04 19:03 22.94014 82.33180 30877 ft 529 kts 135°
2026-05-04 19:04 22.89355 82.39328 30886 ft 530 kts 135°
2026-05-04 19:04 22.84654 82.45527 30893 ft 530 kts 134°
2026-05-04 19:05 22.79958 82.51714 30893 ft 530 kts 134°
2026-05-04 19:05 22.75269 82.57884 30899 ft 530 kts 135°
2026-05-04 19:06 22.70547 82.64094 30886 ft 528 kts 134°
2026-05-04 19:06 22.65852 82.70262 30875 ft 528 kts 135°
2026-05-04 19:07 22.61146 82.76438 30874 ft 528 kts 135°
2026-05-04 19:07 22.56461 82.82580 30873 ft 528 kts 135°
2026-05-04 19:08 22.51780 82.88710 30872 ft 528 kts 135°
2026-05-04 19:08 22.47082 82.94857 30871 ft 527 kts 135°
2026-05-04 19:09 22.42399 83.00977 30869 ft 528 kts 135°
2026-05-04 19:09 22.37726 83.07081 30861 ft 527 kts 135°
2026-05-04 19:10 22.33041 83.13196 30851 ft 527 kts 135°
2026-05-04 19:10 22.30702 83.16247 30852 ft 527 kts 134°
2026-05-04 19:11 22.23665 83.25427 30869 ft 526 kts 134°
2026-05-04 19:11 22.19016 83.31503 30869 ft 526 kts 134°
2026-05-04 19:12 22.12147 83.40756 30860 ft 527 kts 133°
2026-05-04 19:13 22.07597 83.46984 30851 ft 526 kts 133°
2026-05-04 19:13 22.02931 83.53052 30847 ft 523 kts 135°
2026-05-04 19:14 21.98224 83.59036 30850 ft 524 kts 135°
2026-05-04 19:14 21.93500 83.65050 30851 ft 525 kts 135°
2026-05-04 19:15 21.88800 83.71048 30851 ft 523 kts 135°
2026-05-04 19:15 21.84109 83.77039 30854 ft 524 kts 135°
2026-05-04 19:16 21.79384 83.83073 30852 ft 524 kts 135°
2026-05-04 19:16 21.74664 83.89101 30848 ft 524 kts 135°
2026-05-04 19:17 21.69957 83.95114 30839 ft 523 kts 134°
2026-05-04 19:17 21.65274 84.01131 30831 ft 523 kts 134°
2026-05-04 19:18 21.60576 84.07204 30834 ft 524 kts 134°
2026-05-04 19:18 21.55910 84.13236 30841 ft 524 kts 134°
2026-05-04 19:19 21.51210 84.19313 30847 ft 524 kts 134°
2026-05-04 19:19 21.46530 84.25358 30856 ft 524 kts 134°
2026-05-04 19:20 21.41830 84.31424 30859 ft 524 kts 134°
2026-05-04 19:20 21.37168 84.37438 30861 ft 525 kts 134°
2026-05-04 19:21 21.32484 84.43477 30865 ft 524 kts 134°
2026-05-04 19:21 21.27793 84.49519 30860 ft 524 kts 134°
2026-05-04 19:22 21.23116 84.55538 30851 ft 524 kts 134°
2026-05-04 19:22 21.18438 84.61552 30847 ft 525 kts 134°
2026-05-04 19:23 21.13694 84.67645 30846 ft 524 kts 134°
2026-05-04 19:23 21.09024 84.73639 30852 ft 524 kts 134°
2026-05-04 19:24 21.04340 84.79642 30857 ft 525 kts 134°
2026-05-04 19:24 20.99655 84.85643 30859 ft 524 kts 134°
2026-05-04 19:25 20.94955 84.91658 30861 ft 524 kts 134°
2026-05-04 19:25 20.90285 84.97629 30863 ft 523 kts 134°
2026-05-04 19:26 20.85579 85.03638 30869 ft 523 kts 134°
2026-05-04 19:26 20.80878 85.09634 30871 ft 524 kts 134°
2026-05-04 19:26 20.78488 85.12679 30984 ft 526 kts 134°
2026-05-04 19:27 20.76122 85.15695 31252 ft 526 kts 134°
2026-05-04 19:27 20.73776 85.18684 31501 ft 525 kts 134°
2026-05-04 19:27 20.71443 85.21654 31703 ft 525 kts 133°
2026-05-04 19:27 20.69089 85.24650 31944 ft 524 kts 134°
2026-05-04 19:28 20.66723 85.27658 32148 ft 524 kts 133°
2026-05-04 19:28 20.64367 85.30653 32346 ft 524 kts 133°
2026-05-04 19:28 20.62037 85.33614 32567 ft 524 kts 133°
2026-05-04 19:28 20.59683 85.36603 32789 ft 524 kts 133°
2026-05-04 19:29 20.57325 85.39595 32887 ft 526 kts 133°
2026-05-04 19:29 20.52618 85.45568 32882 ft 521 kts 133°
2026-05-04 19:30 20.47968 85.51463 32871 ft 519 kts 133°
2026-05-04 19:30 20.43288 85.57391 32861 ft 520 kts 133°
2026-05-04 19:31 20.38607 85.63316 32852 ft 520 kts 133°
2026-05-04 19:31 20.33947 85.69213 32833 ft 520 kts 133°
2026-05-04 19:32 20.29284 85.75112 32834 ft 520 kts 133°
2026-05-04 19:32 20.24591 85.81028 32828 ft 519 kts 135°
2026-05-04 19:33 20.19636 85.86308 32837 ft 516 kts 140°
2026-05-04 19:33 20.14435 85.91565 32843 ft 516 kts 140°
2026-05-04 19:34 20.09201 85.96883 32843 ft 516 kts 139°
2026-05-04 19:34 20.04038 86.02160 32842 ft 515 kts 139°
2026-05-04 19:35 19.98896 86.07445 32844 ft 515 kts 139°
2026-05-04 19:35 19.93730 86.12718 32843 ft 515 kts 139°
2026-05-04 19:36 19.88565 86.18039 32848 ft 515 kts 138°
2026-05-04 19:36 19.83417 86.23455 32849 ft 515 kts 138°
2026-05-04 19:37 19.78335 86.28810 32851 ft 515 kts 138°
2026-05-04 19:37 19.73207 86.34214 32849 ft 515 kts 138°
2026-05-04 19:38 19.68157 86.39537 32846 ft 514 kts 138°
2026-05-04 19:38 19.63070 86.44916 32845 ft 514 kts 138°
2026-05-04 19:39 19.57970 86.50259 32844 ft 515 kts 139°
2026-05-04 19:39 19.52853 86.55554 32840 ft 515 kts 139°
2026-05-04 19:40 19.47735 86.60847 32837 ft 515 kts 139°
2026-05-04 19:40 19.42606 86.66151 32838 ft 515 kts 139°
2026-05-04 19:41 19.37467 86.71465 32837 ft 515 kts 139°
2026-05-04 19:41 19.32324 86.76781 32839 ft 515 kts 139°
2026-05-04 19:42 19.27207 86.82069 32839 ft 513 kts 139°
2026-05-04 19:42 19.22115 86.87328 32846 ft 513 kts 139°
2026-05-04 19:43 19.16985 86.92622 32856 ft 515 kts 139°
2026-05-04 19:43 19.11823 86.97946 32859 ft 516 kts 139°
2026-05-04 19:44 19.06666 87.03262 32861 ft 516 kts 139°
2026-05-04 19:44 19.01518 87.08566 32863 ft 516 kts 139°
2026-05-04 19:45 18.96380 87.13856 32860 ft 515 kts 139°
2026-05-04 19:45 18.91246 87.19138 32863 ft 515 kts 139°
2026-05-04 19:46 18.86107 87.24421 32863 ft 514 kts 139°
2026-05-04 19:46 18.80981 87.29686 32868 ft 515 kts 139°
2026-05-04 19:47 18.75848 87.34954 32870 ft 515 kts 139°
2026-05-04 19:47 18.70667 87.40268 32868 ft 516 kts 139°
2026-05-04 19:48 18.65542 87.45521 32869 ft 517 kts 139°
2026-05-04 19:48 18.60368 87.50820 32867 ft 516 kts 139°
2026-05-04 19:49 18.55206 87.56104 32863 ft 516 kts 139°
2026-05-04 19:49 18.50054 87.61375 32863 ft 516 kts 139°
2026-05-04 19:50 18.44888 87.66657 32858 ft 517 kts 139°
2026-05-04 19:50 18.39726 87.71932 32857 ft 517 kts 139°
2026-05-04 19:51 18.34555 87.77219 32859 ft 516 kts 139°
2026-05-04 19:51 18.29391 87.82513 32857 ft 516 kts 139°
2026-05-04 19:52 18.24275 87.87792 32860 ft 516 kts 139°
2026-05-04 19:52 18.19113 87.93121 32857 ft 516 kts 139°
2026-05-04 19:53 18.13981 87.98418 32850 ft 516 kts 138°
2026-05-04 19:53 18.08861 88.03703 32846 ft 517 kts 139°
2026-05-04 19:54 18.03698 88.09032 32843 ft 519 kts 139°
2026-05-04 19:54 17.98541 88.14351 32845 ft 520 kts 138°
2026-05-04 19:55 17.93393 88.19661 32844 ft 518 kts 138°
2026-05-04 19:55 17.88247 88.24965 32845 ft 517 kts 138°
2026-05-04 19:56 17.83092 88.30277 32851 ft 517 kts 138°
2026-05-04 19:56 17.77952 88.35570 32850 ft 517 kts 138°
2026-05-04 19:57 17.72816 88.40854 32849 ft 518 kts 138°
2026-05-04 19:57 17.67668 88.46147 32848 ft 517 kts 138°
2026-05-04 19:58 17.62540 88.51417 32857 ft 517 kts 138°
2026-05-04 19:58 17.57354 88.56743 32858 ft 518 kts 138°
2026-05-04 19:59 17.52235 88.61996 32861 ft 518 kts 138°
2026-05-04 19:59 17.47094 88.67270 32852 ft 517 kts 139°
2026-05-04 20:00 17.41932 88.72562 32856 ft 518 kts 139°
2026-05-04 20:00 17.36774 88.77849 32855 ft 518 kts 139°
2026-05-04 20:01 17.31625 88.83124 32855 ft 518 kts 138°
2026-05-04 20:01 17.26472 88.88405 32857 ft 519 kts 138°
2026-05-04 20:02 17.21309 88.93706 32859 ft 519 kts 138°
2026-05-04 20:02 17.16169 88.99015 32858 ft 519 kts 138°
2026-05-04 20:03 17.11024 89.04329 32861 ft 519 kts 138°
2026-05-04 20:03 17.05877 89.09644 32865 ft 518 kts 138°
2026-05-04 20:04 17.00755 89.14931 32867 ft 518 kts 137°
2026-05-04 20:04 16.95622 89.20231 32862 ft 517 kts 137°
2026-05-04 20:05 16.90490 89.25528 32868 ft 518 kts 137°
2026-05-04 20:05 16.85363 89.30819 32862 ft 518 kts 137°
2026-05-04 20:06 16.80208 89.36134 32864 ft 518 kts 137°
2026-05-04 20:06 16.75079 89.41421 32867 ft 518 kts 137°
2026-05-04 20:07 16.69948 89.46708 32861 ft 518 kts 137°
2026-05-04 20:07 16.64818 89.51991 32863 ft 518 kts 137°
2026-05-04 20:08 16.59679 89.57279 32863 ft 518 kts 137°
2026-05-04 20:08 16.54545 89.62560 32859 ft 518 kts 137°
2026-05-04 20:09 16.49401 89.67847 32852 ft 517 kts 137°
2026-05-04 20:09 16.44273 89.73114 32849 ft 517 kts 137°
2026-05-04 20:10 16.39155 89.78368 32842 ft 516 kts 137°
2026-05-04 20:10 16.34023 89.83634 32842 ft 516 kts 137°
2026-05-04 20:11 16.28909 89.88879 32843 ft 516 kts 137°
2026-05-04 20:11 16.23785 89.94132 32842 ft 515 kts 137°
2026-05-04 20:12 16.18688 89.99355 32843 ft 514 kts 137°
2026-05-04 20:12 16.13600 90.04567 32845 ft 514 kts 137°
2026-05-04 20:13 16.08485 90.09808 32842 ft 515 kts 137°
2026-05-04 20:13 16.03383 90.15048 32842 ft 515 kts 136°
2026-05-04 20:14 15.98314 90.20306 32843 ft 513 kts 136°
2026-05-04 20:14 15.93247 90.25593 32843 ft 513 kts 136°
2026-05-04 20:15 15.88223 90.30834 32845 ft 514 kts 136°
2026-05-04 20:15 15.83148 90.36131 32844 ft 513 kts 136°
2026-05-04 20:16 15.78126 90.41369 32846 ft 514 kts 136°
2026-05-04 20:16 15.73080 90.46632 32851 ft 514 kts 136°
2026-05-04 20:17 15.68010 90.51917 32856 ft 513 kts 136°
2026-05-04 20:17 15.62979 90.57162 32860 ft 513 kts 136°
2026-05-04 20:18 15.57908 90.62444 32863 ft 513 kts 136°
2026-05-04 20:18 15.52868 90.67690 32861 ft 514 kts 136°
2026-05-04 20:19 15.47823 90.72939 32863 ft 514 kts 136°
2026-05-04 20:19 15.42756 90.78210 32863 ft 515 kts 136°
2026-05-04 20:20 15.37712 90.83453 32862 ft 514 kts 136°
2026-05-04 20:20 15.32667 90.88693 32861 ft 513 kts 136°
2026-05-04 20:21 15.27601 90.93951 32862 ft 513 kts 136°
2026-05-04 20:21 15.20046 91.01788 32866 ft 512 kts 136°
2026-05-04 20:22 15.15004 91.07013 32866 ft 512 kts 136°
2026-05-04 20:22 15.09951 91.12247 32864 ft 514 kts 136°
2026-05-04 20:23 15.04903 91.17471 32859 ft 515 kts 136°
2026-05-04 20:23 14.99832 91.22717 32863 ft 515 kts 136°
2026-05-04 20:24 14.94753 91.27969 32861 ft 514 kts 136°
2026-05-04 20:24 14.89704 91.33183 32853 ft 515 kts 136°
2026-05-04 20:25 14.84623 91.38431 32847 ft 514 kts 135°
2026-05-04 20:25 14.79540 91.43676 32846 ft 516 kts 135°
2026-05-04 20:26 14.74451 91.48922 32847 ft 517 kts 135°
2026-05-04 20:26 14.69377 91.54150 32847 ft 517 kts 135°
2026-05-04 20:27 14.64301 91.59380 32845 ft 516 kts 135°
2026-05-04 20:27 14.59197 91.64635 32839 ft 517 kts 135°
2026-05-04 20:28 14.54084 91.69895 32840 ft 518 kts 136°
2026-05-04 20:28 14.48940 91.75185 32835 ft 518 kts 136°
2026-05-04 20:29 14.43782 91.80486 32834 ft 518 kts 136°
2026-05-04 20:29 14.38669 91.85743 32832 ft 518 kts 135°
2026-05-04 20:30 14.33549 91.91007 32836 ft 518 kts 135°
2026-05-04 20:30 14.28427 91.96279 32832 ft 519 kts 135°
2026-05-04 20:31 14.23306 92.01594 32829 ft 519 kts 135°
2026-05-04 20:31 14.18240 92.06908 32825 ft 518 kts 135°
2026-05-04 20:32 14.13180 92.12228 32831 ft 518 kts 135°
2026-05-04 20:32 14.08132 92.17539 32837 ft 519 kts 135°
2026-05-04 20:33 14.03072 92.22866 32843 ft 520 kts 135°
2026-05-04 20:33 13.97995 92.28220 32841 ft 520 kts 135°
2026-05-04 20:34 13.92939 92.33575 32844 ft 520 kts 135°
2026-05-04 20:34 13.87729 92.38841 32846 ft 521 kts 136°
2026-05-04 20:35 13.82528 92.44003 32839 ft 521 kts 136°
2026-05-04 20:35 13.77303 92.49204 32841 ft 519 kts 136°
2026-05-04 20:36 13.72097 92.54391 32842 ft 519 kts 136°
2026-05-04 20:36 13.66916 92.59560 32845 ft 520 kts 136°
2026-05-04 20:37 13.61695 92.64770 32844 ft 521 kts 137°
2026-05-04 20:37 13.56480 92.69973 32843 ft 521 kts 137°
2026-05-04 20:38 13.51256 92.75186 32839 ft 521 kts 137°
2026-05-04 20:38 13.46049 92.80377 32835 ft 521 kts 137°
2026-05-04 20:39 13.40802 92.85609 32832 ft 521 kts 137°
2026-05-04 20:39 13.35628 92.90762 32829 ft 520 kts 137°
2026-05-04 20:40 13.30406 92.95961 32830 ft 519 kts 137°
2026-05-04 20:40 13.25233 93.01110 32833 ft 520 kts 137°
2026-05-04 20:41 13.20029 93.06284 32830 ft 520 kts 137°
2026-05-04 20:41 13.14797 93.11485 32828 ft 521 kts 137°
2026-05-04 20:42 13.09569 93.16678 32826 ft 522 kts 137°
2026-05-04 20:42 13.04368 93.21841 32824 ft 521 kts 137°
2026-05-04 20:43 12.99134 93.27034 32822 ft 521 kts 137°
2026-05-04 20:43 12.93940 93.32184 32824 ft 520 kts 137°
2026-05-04 20:44 12.88743 93.37335 32823 ft 520 kts 137°
2026-05-04 20:44 12.83526 93.42503 32824 ft 520 kts 137°
2026-05-04 20:45 12.78299 93.47676 32823 ft 521 kts 137°
2026-05-04 20:45 12.73101 93.52818 32824 ft 520 kts 137°
2026-05-04 20:46 12.67901 93.57958 32824 ft 520 kts 137°
2026-05-04 20:46 12.62682 93.63116 32825 ft 521 kts 137°
2026-05-04 20:47 12.57471 93.68262 32817 ft 520 kts 137°
2026-05-04 20:47 12.52256 93.73408 32818 ft 520 kts 137°
2026-05-04 20:48 12.47024 93.78572 32822 ft 520 kts 137°
2026-05-04 20:48 12.41824 93.83701 32825 ft 520 kts 137°
2026-05-04 20:49 12.36613 93.88840 32832 ft 520 kts 137°
2026-05-04 20:49 12.31416 93.93961 32826 ft 518 kts 137°
2026-05-04 20:50 12.26244 93.99064 32826 ft 518 kts 137°
2026-05-04 20:50 12.21063 94.04195 32827 ft 519 kts 136°
2026-05-04 20:51 12.15878 94.09327 32826 ft 520 kts 136°
2026-05-04 20:51 12.10694 94.14459 32828 ft 518 kts 136°
2026-05-04 20:52 12.05527 94.19580 32819 ft 517 kts 136°
2026-05-04 20:52 12.00339 94.24725 32824 ft 518 kts 136°
2026-05-04 20:53 11.95188 94.29839 32820 ft 518 kts 136°
2026-05-04 20:53 11.90017 94.34979 32825 ft 517 kts 136°
2026-05-04 20:54 11.84883 94.40097 32820 ft 517 kts 136°
2026-05-04 20:54 11.79927 94.45478 32835 ft 518 kts 132°
2026-05-04 20:55 11.75215 94.51028 32827 ft 518 kts 130°
2026-05-04 20:55 11.70518 94.56684 32825 ft 518 kts 131°
2026-05-04 20:56 11.65799 94.62215 32823 ft 518 kts 131°
2026-05-04 20:56 11.61035 94.67785 32819 ft 517 kts 131°
2026-05-04 20:57 11.56306 94.73319 32819 ft 517 kts 131°
2026-05-04 20:57 11.51579 94.78850 32820 ft 516 kts 131°
2026-05-04 20:58 11.46872 94.84358 32820 ft 516 kts 131°
2026-05-04 20:58 11.42135 94.89899 32821 ft 516 kts 131°
2026-05-04 20:59 11.37444 94.95386 32820 ft 516 kts 131°
2026-05-04 20:59 11.32711 95.00917 32823 ft 515 kts 131°
2026-05-04 21:00 11.27992 95.06431 32818 ft 514 kts 131°
2026-05-04 21:00 11.23307 95.11903 32813 ft 513 kts 131°
2026-05-04 21:01 11.18608 95.17388 32809 ft 513 kts 131°
2026-05-04 21:01 11.13892 95.22893 32808 ft 513 kts 131°
2026-05-04 21:02 11.09195 95.28367 32810 ft 513 kts 131°
2026-05-04 21:02 11.04500 95.33839 32820 ft 513 kts 131°
2026-05-04 21:03 10.99802 95.39314 32822 ft 513 kts 131°
2026-05-04 21:03 10.95092 95.44797 32824 ft 513 kts 131°
2026-05-04 21:04 10.90394 95.50264 32823 ft 513 kts 131°
2026-05-04 21:04 10.85679 95.55747 32822 ft 513 kts 131°
2026-05-04 21:05 10.80997 95.61190 32820 ft 513 kts 131°
2026-05-04 21:05 10.76264 95.66688 32819 ft 513 kts 131°
2026-05-04 21:06 10.71574 95.72138 32819 ft 514 kts 131°
2026-05-04 21:06 10.66852 95.77618 32816 ft 513 kts 131°
2026-05-04 21:07 10.62133 95.83094 32814 ft 513 kts 131°
2026-05-04 21:07 10.57441 95.88536 32818 ft 513 kts 131°
2026-05-04 21:08 10.52734 95.93991 32819 ft 513 kts 131°
2026-05-04 21:08 10.48010 95.99464 32821 ft 514 kts 131°
2026-05-04 21:09 10.43299 96.04918 32819 ft 514 kts 131°
2026-05-04 21:09 10.38565 96.10397 32820 ft 515 kts 131°
2026-05-04 21:10 10.33842 96.15864 32821 ft 515 kts 131°
2026-05-04 21:10 10.29134 96.21307 32823 ft 514 kts 131°
2026-05-04 21:11 10.24392 96.26790 32823 ft 513 kts 131°
2026-05-04 21:11 10.19704 96.32207 32822 ft 513 kts 131°
2026-05-04 21:12 10.14983 96.37663 32821 ft 512 kts 131°
2026-05-04 21:12 10.10275 96.43101 32823 ft 513 kts 130°
2026-05-04 21:13 10.05562 96.48547 32824 ft 514 kts 130°
2026-05-04 21:13 10.00851 96.53999 32819 ft 513 kts 131°
2026-05-04 21:14 9.95748 96.59087 32826 ft 513 kts 136°
2026-05-04 21:14 9.90475 96.63989 32823 ft 513 kts 137°
2026-05-04 21:15 9.85222 96.68881 32821 ft 512 kts 137°
2026-05-04 21:15 9.79957 96.73798 32821 ft 512 kts 137°
2026-05-04 21:16 9.74731 96.78687 32822 ft 512 kts 137°
2026-05-04 21:16 9.69482 96.83601 32823 ft 514 kts 137°
2026-05-04 21:17 9.64219 96.88532 32822 ft 514 kts 137°
2026-05-04 21:17 9.58987 96.93434 32821 ft 512 kts 137°
2026-05-04 21:18 9.53765 96.98325 32817 ft 512 kts 137°
2026-05-04 21:18 9.48519 97.03237 32816 ft 512 kts 137°
2026-05-04 21:19 9.43281 97.08138 32811 ft 512 kts 137°
2026-05-04 21:19 9.38042 97.13041 32806 ft 512 kts 136°
2026-05-04 21:20 9.32806 97.17941 32806 ft 512 kts 136°
2026-05-04 21:20 9.27568 97.22839 32814 ft 511 kts 136°
2026-05-04 21:21 9.22348 97.27719 32818 ft 511 kts 136°
2026-05-04 21:21 9.17121 97.32604 32820 ft 511 kts 136°
2026-05-04 21:22 9.11866 97.37515 32823 ft 512 kts 136°
2026-05-04 21:22 9.06664 97.42373 32823 ft 511 kts 136°
2026-05-04 21:23 9.01414 97.47277 32823 ft 511 kts 136°
2026-05-04 21:23 8.96188 97.52158 32823 ft 510 kts 136°
2026-05-04 21:24 8.90974 97.57030 32823 ft 510 kts 136°
2026-05-04 21:24 8.85747 97.61927 32821 ft 511 kts 136°
2026-05-04 21:25 8.80501 97.66799 32822 ft 512 kts 137°
2026-05-04 21:25 8.75242 97.71648 32820 ft 511 kts 137°
2026-05-04 21:26 8.69988 97.76503 32822 ft 511 kts 136°
2026-05-04 21:26 8.64753 97.81342 32822 ft 510 kts 136°
2026-05-04 21:27 8.59512 97.86197 32821 ft 509 kts 136°
2026-05-04 21:27 8.54277 97.91054 32822 ft 510 kts 136°
2026-05-04 21:28 8.49048 97.95926 32822 ft 509 kts 136°
2026-05-04 21:28 8.43809 98.00780 32822 ft 510 kts 137°
2026-05-04 21:29 8.38552 98.05610 32822 ft 511 kts 137°
2026-05-04 21:29 8.33301 98.10439 32826 ft 511 kts 136°
2026-05-04 21:30 8.28050 98.15277 32829 ft 511 kts 136°
2026-05-04 21:30 8.22767 98.20152 32830 ft 511 kts 136°
2026-05-04 21:31 8.14891 98.27434 32833 ft 512 kts 136°
2026-05-04 21:32 8.09608 98.32233 32834 ft 512 kts 139°
2026-05-04 21:32 8.04055 98.36792 32834 ft 513 kts 140°
2026-05-04 21:33 7.98475 98.41334 32834 ft 513 kts 140°
2026-05-04 21:33 7.92927 98.45875 32836 ft 512 kts 140°
2026-05-04 21:34 7.87405 98.50409 32839 ft 511 kts 139°
2026-05-04 21:34 7.81855 98.54974 32830 ft 512 kts 139°
2026-05-04 21:35 7.76304 98.59550 32828 ft 513 kts 139°
2026-05-04 21:35 7.70766 98.64130 32820 ft 513 kts 139°
2026-05-04 21:36 7.65217 98.68675 32812 ft 513 kts 140°
2026-05-04 21:36 7.59680 98.73208 32813 ft 513 kts 139°
2026-05-04 21:37 7.54151 98.77749 32814 ft 513 kts 139°
2026-05-04 21:37 7.48568 98.82351 32810 ft 513 kts 139°
2026-05-04 21:38 7.43064 98.86891 32813 ft 514 kts 140°
2026-05-04 21:38 7.37463 98.91460 32816 ft 513 kts 140°
2026-05-04 21:39 7.31898 98.95998 32818 ft 513 kts 140°
2026-05-04 21:39 7.26369 99.00511 32821 ft 515 kts 140°
2026-05-04 21:40 7.20754 99.05097 32820 ft 515 kts 140°
2026-05-04 21:40 7.15194 99.09640 32819 ft 514 kts 140°
2026-05-04 21:41 7.09659 99.14164 32823 ft 513 kts 140°
2026-05-04 21:41 7.04092 99.18714 32825 ft 512 kts 140°
2026-05-04 21:42 6.98575 99.23224 32825 ft 513 kts 140°
2026-05-04 21:42 6.93018 99.27769 32823 ft 513 kts 140°
2026-05-04 21:43 6.87456 99.32317 32824 ft 512 kts 140°
2026-05-04 21:43 6.81936 99.36831 32831 ft 511 kts 140°
2026-05-04 21:44 6.76400 99.41359 32829 ft 511 kts 140°
2026-05-04 21:44 6.70885 99.45869 32824 ft 511 kts 140°
2026-05-04 21:45 6.65369 99.50383 32828 ft 511 kts 140°
2026-05-04 21:45 6.59847 99.54903 32828 ft 510 kts 140°
2026-05-04 21:46 6.54317 99.59432 32837 ft 510 kts 140°
2026-05-04 21:46 6.48831 99.63938 32834 ft 509 kts 140°
2026-05-04 21:47 6.43282 99.68425 32837 ft 510 kts 141°
2026-05-04 21:47 6.37674 99.72778 32840 ft 511 kts 141°
2026-05-04 21:48 6.32052 99.77139 32843 ft 510 kts 142°
2026-05-04 21:48 6.26393 99.81454 32834 ft 508 kts 142°
2026-05-04 21:49 6.20740 99.85769 32833 ft 508 kts 142°
2026-05-04 21:49 6.15092 99.90089 32829 ft 509 kts 142°
2026-05-04 21:50 6.09439 99.94422 32832 ft 510 kts 142°
2026-05-04 21:50 6.03807 99.98757 32830 ft 509 kts 142°
2026-05-04 21:51 5.98154 100.03081 32823 ft 510 kts 143°
2026-05-04 21:51 5.92474 100.07355 32820 ft 508 kts 142°
2026-05-04 21:52 5.86848 100.11620 32829 ft 507 kts 142°
2026-05-04 21:52 5.81365 100.15749 32829 ft 507 kts 142°
2026-05-04 21:53 5.75707 100.20010 32832 ft 508 kts 142°
2026-05-04 21:53 5.70022 100.24296 32835 ft 508 kts 142°
2026-05-04 21:54 5.64364 100.28563 32833 ft 510 kts 142°
2026-05-04 21:54 5.58686 100.32846 32839 ft 510 kts 142°
2026-05-04 21:55 5.52996 100.37141 32845 ft 509 kts 142°
2026-05-04 21:55 5.47307 100.41437 32843 ft 509 kts 142°
2026-05-04 21:56 5.41664 100.45699 32851 ft 508 kts 142°
2026-05-04 21:56 5.35988 100.49985 32853 ft 509 kts 142°
2026-05-04 21:57 5.30296 100.54286 32855 ft 510 kts 142°
2026-05-04 21:57 5.24614 100.58574 32848 ft 509 kts 142°
2026-05-04 21:58 5.18931 100.62856 32842 ft 508 kts 142°
2026-05-04 21:58 5.13256 100.67134 32851 ft 509 kts 142°
2026-05-04 21:59 5.07568 100.71424 32858 ft 510 kts 142°
2026-05-04 21:59 5.01876 100.75722 32858 ft 510 kts 142°
2026-05-04 22:00 4.96180 100.80023 32870 ft 510 kts 142°
2026-05-04 22:00 4.90496 100.84322 32880 ft 509 kts 142°
2026-05-04 22:01 4.84818 100.88608 32879 ft 509 kts 142°
2026-05-04 22:01 4.79119 100.92910 32881 ft 508 kts 141°
2026-05-04 22:02 4.73481 100.97167 32871 ft 508 kts 142°
2026-05-04 22:02 4.67810 101.01453 32871 ft 508 kts 141°
2026-05-04 22:03 4.62146 101.05708 32867 ft 508 kts 144°
2026-05-04 22:03 4.55988 101.09236 32879 ft 510 kts 155°
2026-05-04 22:04 4.49280 101.11684 32888 ft 511 kts 160°
2026-05-04 22:04 4.42440 101.13764 32881 ft 511 kts 163°
2026-05-04 22:05 4.35602 101.15726 32877 ft 511 kts 163°
2026-05-04 22:05 4.28716 101.17709 32870 ft 511 kts 163°
2026-05-04 22:06 4.21877 101.19686 32856 ft 510 kts 163°
2026-05-04 22:06 4.15023 101.21673 32850 ft 510 kts 163°
2026-05-04 22:07 4.08177 101.23660 32840 ft 510 kts 163°
2026-05-04 22:07 4.01325 101.25649 32845 ft 510 kts 163°
2026-05-04 22:08 3.94473 101.27641 32838 ft 511 kts 163°
2026-05-04 22:08 3.87633 101.29631 32844 ft 511 kts 163°
2026-05-04 22:09 3.80779 101.31631 32844 ft 511 kts 162°
2026-05-04 22:09 3.73908 101.33670 32839 ft 509 kts 162°
2026-05-04 22:10 3.67103 101.35702 32842 ft 509 kts 162°
2026-05-04 22:10 3.60284 101.37740 32842 ft 509 kts 162°
2026-05-04 22:11 3.53495 101.39774 32852 ft 509 kts 162°
2026-05-04 22:11 3.46698 101.41811 32847 ft 509 kts 162°
2026-05-04 22:12 3.39864 101.43863 32848 ft 509 kts 162°
2026-05-04 22:12 3.33082 101.45949 32850 ft 509 kts 159°
2026-05-04 22:13 3.26546 101.48735 32856 ft 508 kts 154°
2026-05-04 22:13 3.20127 101.51749 32856 ft 507 kts 154°
2026-05-04 22:14 3.13741 101.54710 32860 ft 506 kts 154°
2026-05-04 22:14 3.07328 101.57670 32863 ft 506 kts 154°
2026-05-04 22:15 3.00913 101.60632 32864 ft 506 kts 154°
2026-05-04 22:15 2.94475 101.63605 32857 ft 506 kts 154°
2026-05-04 22:16 2.88056 101.66569 32863 ft 506 kts 154°
2026-05-04 22:16 2.81722 101.69498 32857 ft 506 kts 154°
2026-05-04 22:17 2.75311 101.72465 32852 ft 506 kts 154°
2026-05-04 22:17 2.69085 101.75795 32863 ft 505 kts 147°
2026-05-04 22:18 2.63124 101.79527 32856 ft 505 kts 146°
2026-05-04 22:18 2.57197 101.83309 32854 ft 504 kts 146°
2026-05-04 22:19 2.51236 101.87042 32854 ft 504 kts 147°
2026-05-04 22:19 2.45269 101.90775 32851 ft 504 kts 146°
2026-05-04 22:20 2.39330 101.94497 32852 ft 503 kts 146°
2026-05-04 22:20 2.33390 101.98223 32852 ft 503 kts 146°
2026-05-04 22:21 2.27405 102.01955 32851 ft 503 kts 148°
2026-05-04 22:21 2.21688 102.05974 32855 ft 500 kts 138°
2026-05-04 22:22 2.16896 102.10969 32850 ft 498 kts 127°
2026-05-04 22:22 2.13064 102.16717 32857 ft 498 kts 121°
2026-05-04 22:23 2.09400 102.22602 32847 ft 499 kts 120°
2026-05-04 22:23 2.05852 102.28583 32853 ft 498 kts 117°
2026-05-04 22:24 2.02614 102.34669 32849 ft 498 kts 116°
2026-05-04 22:24 1.99478 102.40844 32852 ft 497 kts 116°
2026-05-04 22:25 1.96253 102.46961 32851 ft 496 kts 117°
2026-05-04 22:25 1.92962 102.53079 32241 ft 503 kts 117°
2026-05-04 22:25 1.91309 102.56149 31706 ft 501 kts 117°
2026-05-04 22:26 1.89670 102.59195 31166 ft 499 kts 117°
2026-05-04 22:26 1.88029 102.62251 30630 ft 499 kts 117°
2026-05-04 22:26 1.86395 102.65299 30099 ft 499 kts 117°
2026-05-04 22:26 1.84748 102.68369 29570 ft 500 kts 117°
2026-05-04 22:27 1.83108 102.71434 29046 ft 501 kts 117°
2026-05-04 22:27 1.81458 102.74521 28517 ft 503 kts 117°
2026-05-04 22:27 1.79815 102.77593 28010 ft 504 kts 117°
2026-05-04 22:27 1.78145 102.80723 27489 ft 505 kts 117°
2026-05-04 22:28 1.76498 102.83815 26970 ft 503 kts 117°
2026-05-04 22:28 1.74869 102.86881 26450 ft 500 kts 117°
2026-05-04 22:28 1.73259 102.89931 25933 ft 495 kts 117°
2026-05-04 22:28 1.71652 102.92947 25418 ft 490 kts 117°
2026-05-04 22:29 1.70045 102.95946 24907 ft 486 kts 117°
2026-05-04 22:29 1.68444 102.98933 24399 ft 483 kts 117°
2026-05-04 22:29 1.66881 103.01856 23902 ft 479 kts 117°
2026-05-04 22:29 1.65311 103.04796 23402 ft 476 kts 117°
2026-05-04 22:30 1.63744 103.07740 22913 ft 472 kts 117°
2026-05-04 22:30 1.62026 103.10474 22392 ft 469 kts 128°
2026-05-04 22:30 1.59650 103.12695 21938 ft 468 kts 142°
2026-05-04 22:30 1.56952 103.14543 21523 ft 466 kts 144°
2026-05-04 22:31 1.54253 103.16390 21053 ft 464 kts 143°
2026-05-04 22:31 1.51620 103.18224 20589 ft 460 kts 142°
2026-05-04 22:31 1.49038 103.20126 20123 ft 457 kts 141°
2026-05-04 22:31 1.46492 103.21957 19661 ft 453 kts 144°
2026-05-04 22:32 1.43860 103.23695 19204 ft 451 kts 144°
2026-05-04 22:32 1.41229 103.25416 18742 ft 448 kts 145°
2026-05-04 22:32 1.38623 103.27112 18284 ft 445 kts 145°
2026-05-04 22:32 1.36030 103.28806 17822 ft 442 kts 144°
2026-05-04 22:33 1.33462 103.30489 17354 ft 435 kts 144°
2026-05-04 22:33 1.30971 103.32122 16903 ft 427 kts 144°
2026-05-04 22:33 1.28500 103.33746 16298 ft 414 kts 144°
2026-05-04 22:33 1.26150 103.35291 15776 ft 391 kts 144°
2026-05-04 22:34 1.23933 103.36748 15329 ft 370 kts 144°
2026-05-04 22:34 1.21838 103.38128 14914 ft 351 kts 144°
2026-05-04 22:34 1.19860 103.39431 14494 ft 335 kts 144°
2026-05-04 22:34 1.17969 103.40679 14095 ft 319 kts 144°
2026-05-04 22:35 1.16133 103.41891 13719 ft 304 kts 144°
2026-05-04 22:35 1.14407 103.43032 13514 ft 293 kts 144°
2026-05-04 22:35 1.12715 103.44152 13206 ft 290 kts 144°
2026-05-04 22:35 1.11038 103.45263 12891 ft 287 kts 144°
2026-05-04 22:36 1.09366 103.46371 12584 ft 284 kts 144°
2026-05-04 22:36 1.07726 103.47458 12270 ft 281 kts 144°
2026-05-04 22:36 1.06138 103.48537 11815 ft 275 kts 136°
2026-05-04 22:36 1.04974 103.50018 11681 ft 266 kts 111°
2026-05-04 22:37 1.04624 103.51797 11509 ft 260 kts 84°
2026-05-04 22:37 1.04875 103.53574 11339 ft 260 kts 81°
2026-05-04 22:37 1.05136 103.55376 11072 ft 263 kts 83°
2026-05-04 22:37 1.05338 103.57207 10788 ft 262 kts 85°
2026-05-04 22:38 1.05475 103.58985 10498 ft 259 kts 86°
2026-05-04 22:38 1.05633 103.60793 10200 ft 256 kts 83°
2026-05-04 22:38 1.05863 103.62532 9892 ft 251 kts 82°
2026-05-04 22:38 1.06085 103.64220 9594 ft 245 kts 82°
2026-05-04 22:39 1.06305 103.65897 9307 ft 240 kts 82°
2026-05-04 22:39 1.06519 103.67532 9047 ft 237 kts 82°
2026-05-04 22:39 1.06735 103.69189 8717 ft 239 kts 82°
2026-05-04 22:39 1.06949 103.70822 8252 ft 238 kts 82°
2026-05-04 22:40 1.07160 103.72439 7854 ft 235 kts 82°
2026-05-04 22:40 1.07369 103.74060 7479 ft 235 kts 82°
2026-05-04 22:40 1.07576 103.75679 7087 ft 234 kts 82°
2026-05-04 22:40 1.07781 103.77282 6711 ft 233 kts 82°
2026-05-04 22:41 1.07986 103.78886 6317 ft 230 kts 81°
2026-05-04 22:41 1.08185 103.80454 5925 ft 228 kts 82°
2026-05-04 22:41 1.08386 103.82027 5517 ft 223 kts 82°
2026-05-04 22:41 1.08579 103.83540 5110 ft 220 kts 82°
2026-05-04 22:42 1.08771 103.85061 4727 ft 219 kts 82°
2026-05-04 22:42 1.08965 103.86556 4322 ft 217 kts 79°
2026-05-04 22:42 1.09578 103.87919 3902 ft 217 kts 46°
2026-05-04 22:42 1.10811 103.88680 3783 ft 203 kts
2026-05-04 22:43 1.12192 103.88998 3981 ft 206 kts 17°
2026-05-04 22:43 1.13576 103.89414 3856 ft 209 kts 17°
2026-05-04 22:43 1.14972 103.89829 3711 ft 206 kts 17°
2026-05-04 22:43 1.16354 103.90242 3588 ft 205 kts 17°
2026-05-04 22:44 1.17717 103.90649 3472 ft 205 kts 17°
2026-05-04 22:44 1.19097 103.91100 3242 ft 207 kts 23°
2026-05-04 22:44 1.20421 103.91668 2983 ft 202 kts 24°
2026-05-04 22:44 1.21700 103.92213 2723 ft 197 kts 23°
2026-05-04 22:45 1.22955 103.92741 2477 ft 196 kts 23°
2026-05-04 22:45 1.25473 103.93804 1979 ft 192 kts 22°
2026-05-04 22:45 1.26679 103.94312 1774 ft 189 kts 22°
2026-05-04 22:46 1.27919 103.94829 1506 ft 190 kts 22°
2026-05-04 22:46 1.29127 103.95334 1244 ft 188 kts 23°
2026-05-04 22:46 1.30299 103.95825 982 ft 172 kts 23°
2026-05-04 22:46 1.31374 103.96276 766 ft 167 kts 23°
2026-05-04 22:47 1.32474 103.96740 551 ft 168 kts 23°
2026-05-04 22:47 1.33559 103.97194 348 ft 169 kts 23°
2026-05-04 22:47 1.34652 103.97649 120 ft 167 kts 22°
2026-05-04 22:47 1.35730 103.98100 35 ft 152 kts 22°
2026-05-04 22:48 1.36562 103.98450 35 ft 109 kts 23°
2026-05-04 22:48 1.37149 103.98698 35 ft 72 kts 22°
2026-05-04 22:48 1.37429 103.98856 35 ft 31 kts 48°
2026-05-04 22:48 1.37564 103.99026 35 ft 26 kts 52°
2026-05-04 22:49 1.37624 103.99146 35 ft 18 kts 98°
2026-05-04 22:49 1.37578 103.99269 35 ft 18 kts 114°
2026-05-04 22:49 1.37553 103.99328 35 ft 4 kts 113°
2026-05-04 22:49 1.37547 103.99341 35 ft 0 kts 112°